TimeADT,TemperatureF,Dew PointF,Humidity,Sea Level PressureIn,VisibilityMPH,Wind Direction,Wind SpeedMPH,Gust SpeedMPH,PrecipitationIn,Events,Conditions,WindDirDegrees,DateUTC
12:00 AM,57.2,57.2,100,30.02,8.0,ESE,20.7,33.4,N/A,,Overcast,120,2012-10-31 03:00:00
1:00 AM,57.2,57.2,100,30.00,10.0,SE,21.9,29.9,N/A,,Overcast,130,2012-10-31 04:00:00
2:00 AM,59.0,57.2,94,29.98,10.0,SE,23.0,36.8,N/A,,Overcast,140,2012-10-31 05:00:00
3:00 AM,58,58,100,29.96,10,SE,24.2,,,,Overcast,130,2012-10-31 06:00:00
3:00 AM,59.0,57.2,94,29.96,10.0,SE,24.2,35.7,N/A,,Overcast,130,2012-10-31 06:00:00
4:00 AM,57.2,57.2,100,29.93,10.0,SE,20.7,34.5,N/A,,Overcast,130,2012-10-31 07:00:00
4:24 AM,57.2,57.2,100,29.94,8.0,SE,18.4,31.1,N/A,Rain,Light Rain Showers,130,2012-10-31 07:24:00
5:00 AM,57.2,57.2,100,29.93,10.0,SE,27.6,33.4,N/A,,Overcast,130,2012-10-31 08:00:00
5:27 AM,57.2,57.2,100,29.92,8.0,SE,20.7,28.8,N/A,Rain,Light Rain Showers,130,2012-10-31 08:27:00
6:00 AM,57.2,57.2,100,29.92,8.0,SE,23.0,32.2,N/A,Rain,Light Rain Showers,130,2012-10-31 09:00:00
6:31 AM,57.2,57.2,100,29.92,2.5,SE,23.0,31.1,N/A,Rain,Light Rain Showers,130,2012-10-31 09:31:00
7:00 AM,57.2,57.2,100,29.91,2.5,ESE,23.0,32.2,N/A,Rain,Light Rain Showers,120,2012-10-31 10:00:00
8:00 AM,57.2,57.2,100,29.90,3.0,ESE,21.9,31.1,N/A,Rain,Light Rain Showers,120,2012-10-31 11:00:00
9:00 AM,58,58,98,29.88,3,ESE,25.3,,,Rain,Light Rain Showers,120,2012-10-31 12:00:00
9:00 AM,57.2,57.2,100,29.88,3.0,ESE,25.3,38.0,N/A,Rain,Light Rain Showers,120,2012-10-31 12:00:00
9:23 AM,57.2,57.2,100,29.87,0.8,ESE,25.3,33.4,N/A,Rain,Heavy Rain Showers,120,2012-10-31 12:23:00
9:40 AM,57.2,57.2,100,29.87,1.5,ESE,24.2,35.7,N/A,Rain,Light Rain Showers,120,2012-10-31 12:40:00
10:00 AM,59.0,59.0,100,29.86,1.5,SE,29.9,36.8,N/A,Rain,Rain Showers,130,2012-10-31 13:00:00
10:19 AM,59.0,59.0,100,29.86,1.2,ESE,25.3,38.0,N/A,Rain,Light Rain Showers,120,2012-10-31 13:19:00
11:00 AM,59.0,59.0,100,29.87,1.2,SE,21.9,36.8,N/A,Rain,Light Rain Showers,140,2012-10-31 14:00:00
11:07 AM,59.0,59.0,100,29.91,0.8,SW,18.4,36.8,N/A,Rain,Heavy Rain Showers,220,2012-10-31 14:07:00
11:10 AM,59.0,59.0,100,29.90,0.8,SSW,15.0,36.8,N/A,Rain-Thunderstorm,Heavy Thunderstorms and Rain,210,2012-10-31 14:10:00
11:19 AM,59.0,59.0,100,29.89,1.2,SSE,9.2,-,N/A,Rain-Thunderstorm,Thunderstorms and Rain,150,2012-10-31 14:19:00
11:50 AM,57.2,57.2,100,29.86,2.0,ESE,16.1,-,N/A,Rain,Rain Showers,120,2012-10-31 14:50:00
12:00 PM,57.2,57.2,100,29.86,1.5,ESE,13.8,-,N/A,Rain,Rain Showers,110,2012-10-31 15:00:00
1:00 PM,57.2,57.2,100,29.86,1.2,SE,13.8,-,N/A,Rain,Rain Showers,140,2012-10-31 16:00:00
1:08 PM,57.2,57.2,100,29.84,1.2,ESE,12.7,-,N/A,Rain-Thunderstorm,Heavy Thunderstorms and Rain,120,2012-10-31 16:08:00
1:40 PM,57.2,57.2,100,29.81,1.5,East,15.0,-,N/A,Rain,Rain Showers,100,2012-10-31 16:40:00
2:00 PM,59.0,59.0,100,29.80,2.0,ESE,15.0,-,N/A,Rain,Light Rain Showers,110,2012-10-31 17:00:00
2:31 PM,59.0,59.0,100,29.81,1.0,SE,12.7,-,N/A,Rain,Rain Showers,130,2012-10-31 17:31:00
2:40 PM,59.0,59.0,100,29.80,2.0,ESE,11.5,-,N/A,Rain,Light Rain Showers,120,2012-10-31 17:40:00
3:00 PM,59,59,98,29.79,1,ESE,10.4,,,Rain,Heavy Rain Showers,120,2012-10-31 18:00:00
3:00 PM,59.0,59.0,100,29.79,1.0,ESE,10.4,-,N/A,Rain,Rain Showers,120,2012-10-31 18:00:00
3:09 PM,59.0,59.0,100,29.78,2.0,ESE,13.8,-,N/A,Rain,Light Rain Showers,110,2012-10-31 18:09:00
4:00 PM,59.0,59.0,100,29.76,0.8,ESE,17.3,-,N/A,Rain,Light Rain Showers,120,2012-10-31 19:00:00
4:38 PM,60.8,60.8,100,29.75,1.5,SE,18.4,29.9,N/A,Rain,Rain Showers,130,2012-10-31 19:38:00
5:00 PM,60.8,60.8,100,29.74,4.0,SE,20.7,27.6,N/A,Rain,Light Rain Showers,140,2012-10-31 20:00:00
6:00 PM,60.8,60.8,100,29.71,0.8,SE,20.7,29.9,N/A,,Mist,140,2012-10-31 21:00:00
6:26 PM,60.8,60.8,100,29.71,0.2,SE,23.0,35.7,N/A,Fog,Fog,140,2012-10-31 21:26:00
7:00 PM,60.8,60.8,100,29.71,0.2,SE,17.3,28.8,N/A,Fog-Rain,Light Rain Showers,140,2012-10-31 22:00:00
7:20 PM,60.8,60.8,100,29.70,2.5,SE,17.3,24.2,N/A,Rain,Light Rain Showers,130,2012-10-31 22:20:00
7:37 PM,60.8,60.8,100,29.70,6.0,SE,17.3,-,N/A,,Overcast,130,2012-10-31 22:37:00
8:00 PM,60.8,60.8,100,29.68,12.0,SE,17.3,28.8,N/A,Rain,Light Rain Showers,130,2012-10-31 23:00:00
9:00 PM,60,60,99,29.67,1,SE,16.1,,,Rain,Light Drizzle,130,2012-11-01 00:00:00
9:00 PM,59.0,59.0,100,29.67,1.5,SE,16.1,21.9,N/A,,Light Drizzle,130,2012-11-01 00:00:00
9:32 PM,60.8,60.8,100,29.66,4.0,SE,17.3,24.2,N/A,Rain,Light Rain Showers,130,2012-11-01 00:32:00
9:44 PM,60.8,60.8,100,29.66,3.0,SE,17.3,28.8,N/A,Rain,Rain Showers,130,2012-11-01 00:44:00
10:00 PM,60.8,60.8,100,29.65,4.0,SE,19.6,28.8,N/A,Rain,Rain Showers,130,2012-11-01 01:00:00
11:00 PM,59.0,59.0,100,29.64,4.0,SE,17.3,29.9,N/A,Rain,Light Rain Showers,140,2012-11-01 02:00:00